Content
SEND FEEDBACK

Daily
Averages
Monthly
Summary
United States of America

WHITINGHAM, VERMONT


Home > North America > United States > Vermont
Elevation: 502 meters     Latitude: 42 47N     Longitude: 072 55W

WEATHER
 
SELECT A DAY
Number of Records: 200,924;   Date Range: 10/28/95 - 11/27/14
 
SHARE

PRINT THIS DATA

[ ← Previous Day ]
WEATHER ALMANAC - 13 FEBRUARY, 2013
[ Next Day → ]
[ °F ]   °C
Weather ElementAverageHighLow
Temperature-0.6 °C2.8 °C (2:52 pm)-3.9 °C (6:52 pm)
Dewpoint-7.6 °C-6 °C (5:50 am)-9.4 °C (2:52 pm)
Humidity60.2 %72 % (7:52 pm)41 % (2:52 pm)
Barometer1009.8 hPa1011.9 hPa (2:52 am)1006.8 hPa (11:52 pm)
Wind Speed8.7 km/h25.9 km/h (1:52 am)
Wind Gust40.7 km/h (2:52 am)
Weather ElementAverage
Visibility16.1 km
Wind DirectionSSE (163.9 °)

Weather ElementTotal
Precipitation---
Heating Degree Days18.9 (Base 18.3)
Averaged from 28 records on 13 February, 2013
WEATHER CONDITIONS BREAKOUT
WIND DIRECTION BREAKOUT
WEATHER BY HOUR - 13 FEBRUARY, 2013
[ °F ]   °C
Local TimeTemperatureDewpointHumidityBarometerVisibilityWind DirectionWind SpeedGust SpeedPrecipitationEventsConditions
1:52 AM-0.6 °C-7.2 °C61 %1011.5 hPa16.1 kmWest (260°)25.9 km/h38.9 km/hOvercast
2:52 AM-0.6 °C-6.7 °C64 %1011.9 hPa16.1 kmWSW (250°)24.1 km/h40.7 km/hOvercast
3:52 AM-0.6 °C-6.7 °C64 %1011.9 hPa16.1 kmWest (260°)22.2 km/hOvercast
4:52 AM-0.6 °C-6.7 °C64 %1011.9 hPa16.1 kmWest (260°)16.7 km/hOvercast
5:50 AM-1 °C-6 °C69 %1010.8 hPa16.1 kmWest (270°)13 km/hOvercast
5:52 AM-0.6 °C-6.1 °C67 %1011.5 hPa16.1 kmWest (260°)14.8 km/hOvercast
6:44 AM-1 °C-7 °C64 %1010.8 hPa16.1 kmWest (270°)13 km/hOvercast
6:52 AM-0.6 °C-6.7 °C64 %1011.5 hPa16.1 kmWest (260°)13 km/hOvercast
7:41 AM-1 °C-7 °C64 %1011.2 hPa16.1 kmWest (260°)13 km/hOvercast
7:52 AM-0.6 °C-6.7 °C64 %1011.9 hPa16.1 kmWSW (250°)13 km/hOvercast
8:52 AM0.6 °C-6.7 °C59 %1011.5 hPa16.1 kmWest (270°)11.1 km/hOvercast
9:47 AM1 °C-7 °C56 %1010.5 hPa16.1 kmWest (280°)11.1 km/hOvercast
9:52 AM0.6 °C-7.2 °C56 %1011.2 hPa16.1 kmVariable5.6 km/hOvercast
10:40 AM1 °C-8 °C52 %1010.2 hPa16.1 kmWNW (300°)5.6 km/hOvercast
10:52 AM1.1 °C-7.8 °C52 %1011.2 hPa16.1 kmWNW (300°)5.6 km/hOvercast
11:52 AM1.1 °C-8.9 °C48 %1010.5 hPa16.1 kmWest (280°)13 km/hOvercast
12:52 PM1.1 °C-8.3 °C50 %1010.2 hPa16.1 kmVariable7.4 km/hOvercast
1:52 PM1.1 °C-8.9 °C48 %1009.5 hPa16.1 kmCalmOvercast
2:52 PM2.8 °C-9.4 °C41 %1008.5 hPa16.1 kmWest (280°)5.6 km/hScattered Clouds
3:52 PM2.8 °C-9.4 °C41 %1008.1 hPa16.1 kmWest (280°)7.4 km/hClear
4:52 PM1.1 °C-9.4 °C46 %1007.5 hPa16.1 kmCalmClear
5:52 PM-2.8 °C-8.9 °C63 %1007.5 hPa16.1 kmCalmClear
6:52 PM-3.9 °C-8.9 °C69 %1007.5 hPa16.1 kmCalmClear
7:52 PM-3.9 °C-8.3 °C72 %1007.5 hPa16.1 kmCalmClear
8:52 PM-3.9 °C-8.3 °C72 %1007.8 hPa16.1 kmCalmScattered Clouds
9:52 PM-2.8 °C-7.2 °C72 %1007.5 hPa16.1 kmCalmOvercast
10:52 PM-2.8 °C-7.2 °C72 %1007.5 hPa16.1 kmCalmOvercast
11:52 PM-2.8 °C-7.2 °C72 %1006.8 hPa14.5 kmCalmOvercast
Hourly data recorded from KAQW, located 0 kilometers away from Whitingham, Vermont







STORIES FROM OUR PARTNERS